Flag for Germany Weather past 2 weeks in Wuppertal, North Rhine-Westphalia, Germany

Now
36 °F

Partly sunny.


Feels Like: 30 °F
Forecast: 29 / 37 °F
Wind: 7 mph from South

Location: Duesseldorf

Current Time: Feb 1, 2015 at 8:35:32 AM

Latest Report: Feb 1, 2015 at 8:20 AM


Visibility: 4 mi

Pressure: 29.18 "Hg

Humidity: 87%

Dew point: 32 °F

Location of WuppertalLocation

Historic Weather in Wuppertal — Graph

°F

Wuppertal temperature yesterday

Maximum temperature yesterday: 41 °F (at 1:20 PM)
Minimum temperature yesterday: 30 °F (at 8:20 PM)
Average temperature yesterday: 35 °F

Past Weeks' High & Low Weather Summary

 TemperatureHumidityPressure
High45 °F (Jan 26, 5:50 PM)100% (Jan 17, 8:20 AM)30.42 "Hg (Jan 17, 8:20 AM)
Low25 °F (Jan 25, 2:20 AM)52% (Jan 21, 1:20 PM)28.71 "Hg (Jan 29, 11:20 PM)
Average35 °F85%29.81 "Hg
* Reported Jan 17 7:20 AM — Feb 1 7:20 AM, Wuppertal, Weather by CustomWeather, © 2014

Note: Actual official high and low records may vary slightly from our data, if they occured in-between our weather recording intervals... More about our weather records

Advertising

Wuppertal weather history for previous 24 hours

 ConditionsComfort  
Time TempWeatherWind HumidityBarometerVisibility
7:20 AM
Feb 1
34 °FPassing clouds.8 mph93%29.18 "Hg4 mi
6:50 AM34 °FPassing clouds.8 mph93%29.15 "Hg4 mi
6:20 AM34 °FPassing clouds.10 mph93%29.15 "Hg4 mi
5:50 AM34 °FSnow flurries. Passing clouds.9 mph93%29.15 "Hg6 mi
5:20 AM32 °FPartly cloudy.8 mph93%29.15 "HgN/A
4:50 AM34 °FPassing clouds.7 mph93%29.15 "HgN/A
4:20 AM34 °FPassing clouds.8 mph93%29.12 "HgN/A
3:50 AM34 °FPassing clouds.8 mph93%29.12 "HgN/A
3:20 AM34 °FPassing clouds.8 mph93%29.12 "HgN/A
2:50 AM32 °FPartly cloudy.6 mph93%29.12 "HgN/A
2:20 AM34 °FPassing clouds.7 mph87%29.12 "HgN/A
1:50 AM32 °FPassing clouds.6 mph93%29.12 "HgN/A
1:20 AM32 °FPassing clouds.5 mph93%29.12 "HgN/A
12:50 AM30 °FPassing clouds.6 mph93%29.12 "HgN/A
12:20 AM32 °FPassing clouds.6 mph87%29.12 "HgN/A
11:50 PM
Jan 31
32 °FPassing clouds.6 mph93%29.12 "HgN/A
11:20 PM30 °FPassing clouds.6 mph86%29.12 "HgN/A
10:50 PM30 °FPassing clouds.6 mph93%29.12 "HgN/A
10:20 PM30 °FPassing clouds.5 mph93%29.12 "HgN/A
9:50 PM32 °FPassing clouds.6 mph87%29.12 "HgN/A
9:20 PM30 °FPassing clouds.6 mph86%29.12 "HgN/A
8:50 PM30 °FPassing clouds.7 mph86%29.09 "HgN/A
8:20 PM30 °FPassing clouds.6 mph86%29.09 "HgN/A
7:50 PM32 °FClear.7 mph80%29.09 "Hg10 mi
7:20 PM32 °FClear.5 mph80%29.09 "Hg10 mi
6:50 PM32 °FClear.5 mph80%29.06 "Hg10 mi
6:20 PM34 °FClear.5 mph81%29.06 "Hg10 mi
5:50 PM34 °FPassing clouds.7 mph81%29.06 "HgN/A
5:20 PM36 °FPassing clouds.12 mph81%29.06 "HgN/A
4:20 PM41 °FPassing clouds.14 mph66%29.03 "HgN/A
3:50 PM41 °FScattered showers. Passing clouds.8 mph66%29.03 "HgN/A
3:20 PM41 °FScattered showers. Passing clouds.12 mph61%29.00 "HgN/A
2:50 PM41 °FScattered showers. Scattered clouds.9 mph66%29.00 "HgN/A
2:20 PM41 °FScattered showers. Scattered clouds.10 mph66%29.00 "HgN/A
1:50 PM41 °FSprinkles. Scattered clouds.12 mph66%29.00 "HgN/A
1:20 PM41 °FScattered clouds.13 mph66%29.00 "HgN/A
12:50 PM39 °FScattered clouds.9 mph75%29.00 "HgN/A
12:20 PM39 °FScattered clouds.10 mph81%29.00 "HgN/A
11:50 AM39 °FScattered clouds.10 mph81%29.00 "HgN/A
11:20 AM37 °FBroken clouds.7 mph87%29.00 "HgN/A
10:50 AM36 °FScattered clouds.8 mph93%29.00 "HgN/A
10:20 AM34 °FPartly sunny.8 mph100%28.97 "HgN/A
9:50 AM34 °FPartly sunny.8 mph93%28.97 "HgN/A
9:20 AM34 °FScattered clouds.8 mph93%28.97 "Hg6 mi
8:50 AM34 °FScattered clouds.10 mph93%28.97 "HgN/A
8:20 AM34 °FScattered clouds.10 mph93%28.94 "HgN/A
Weather by CustomWeather, © 2014

See weather overviewHow to use our weather pages